Change the Weather History Date:

Sunday, August 25, 2013

  Actual Average Record
Temperature  
Mean Temperature 84 °F 67 °F  
Max Temperature 92 °F 78 °F 98 °F (1926)
Min Temperature 75 °F 56 °F 37 °F (1934)
Degree Days  
Heating Degree Days 0 2  
Month to date heating degree days 19 28  
Since 1 June heating degree days 139 123  
Since 1 July heating degree days 51 45  
Cooling Degree Days 19 4  
Month to date cooling degree days 119 129  
Year to date cooling degree days 427 453  
Since 1 June cooling degree days 405 431  
Growing Degree Days 33 (Base 50)    
Moisture  
Dew Point 71 °F    
Average Humidity 69    
Maximum Humidity 85    
Minimum Humidity 52    
Precipitation  
Precipitation 0.00 in 0.09 in 1.35 in (1960)
Month to date precipitation 0.48 2.27  
Year to date precipitation 16.77 15.72  
Sea Level Pressure  
Sea Level Pressure 29.89 in    
Wind  
Wind Speed 12 mph (SSW)    
Max Wind Speed 21 mph    
Max Gust Speed 29 mph    
Visibility 10 miles    
Events      
T = Trace of Precipitation, MM = Missing Value Source: NWS Daily Summary

Daily Weather History Graph

Daily Weather History Graph

Search for Another Location

Airport or City:

Trip Planner

Search our weather history database for the weather conditions in past years. The results will help you decide how hot, cold, wet, or windy it might be!

Date:

Astronomy

Aug. 25, 2013 Rise Set
Actual Time 6:42 AM CDT 8:17 PM CDT
Civil Twilight 6:11 AM CDT 8:48 PM CDT
Nautical Twilight 5:34 AM CDT 9:25 PM CDT
Astronomical Twilight 4:54 AM CDT 10:05 PM CDT
Moon 10:32 PM CDT (8/25) 12:01 PM CDT (8/25)
Length of Visible Light 14h 36m
Length of Day
13h 34m
Waning Gibbous, 75% of the Moon is Illuminated
Aug 25
Waning Gibbous
Aug 28
Last Quarter
Sep 5
New
Sep 12
First Quarter
Sep 19
Full

Hourly Weather History & Observations

Time (CDT) Temp. Heat Index Dew Point Humidity Pressure Visibility Wind Dir Wind Speed Gust Speed Precip Events Conditions
12:53 AM 79.0 °F - 72.0 °F 79% 29.87 in 10.0 mi South 11.5 mph - N/A   Partly Cloudy
1:53 AM 79.0 °F - 71.1 °F 77% 29.87 in 10.0 mi South 13.8 mph 20.7 mph N/A   Scattered Clouds
2:53 AM 78.1 °F - 70.0 °F 76% 29.86 in 10.0 mi SSW 18.4 mph 24.2 mph N/A   Partly Cloudy
3:53 AM 77.0 °F - 70.0 °F 79% 29.87 in 10.0 mi South 12.7 mph - N/A   Clear
4:53 AM 75.9 °F - 69.1 °F 79% 29.88 in 10.0 mi South 13.8 mph 20.7 mph N/A   Clear
5:53 AM 75.9 °F - 69.1 °F 79% 29.88 in 10.0 mi South 11.5 mph - N/A   Clear
6:53 AM 75.0 °F - 69.1 °F 82% 29.89 in 10.0 mi South 12.7 mph - N/A   Clear
7:53 AM 75.9 °F - 69.1 °F 79% 29.90 in 10.0 mi South 11.5 mph - N/A   Clear
8:53 AM 78.1 °F - 69.1 °F 74% 29.90 in 10.0 mi South 16.1 mph 25.3 mph N/A   Clear
9:53 AM 82.0 °F 85.9 °F 70.0 °F 67% 29.89 in 10.0 mi South 17.3 mph 28.8 mph N/A   Clear
10:53 AM 84.0 °F 88.4 °F 70.0 °F 63% 29.91 in 10.0 mi SSW 18.4 mph - N/A   Clear
11:53 AM 87.1 °F 92.0 °F 70.0 °F 57% 29.90 in 10.0 mi SSW 16.1 mph - N/A   Clear
12:53 PM 88.0 °F 92.9 °F 70.0 °F 55% 29.89 in 10.0 mi SSW 15.0 mph 24.2 mph N/A   Clear
1:53 PM 89.1 °F 95.0 °F 71.1 °F 55% 29.88 in 10.0 mi SSW 17.3 mph - N/A   Clear
2:53 PM 91.0 °F 98.2 °F 72.0 °F 53% 29.88 in 10.0 mi South 13.8 mph - N/A   Clear
3:53 PM 91.0 °F 98.2 °F 72.0 °F 53% 29.88 in 10.0 mi South 12.7 mph 23.0 mph N/A   Clear
4:53 PM 91.9 °F 99.5 °F 72.0 °F 52% 29.88 in 10.0 mi SSW 15.0 mph - N/A   Clear
5:53 PM 90.0 °F 97.9 °F 73.0 °F 57% 29.88 in 10.0 mi South 9.2 mph - N/A   Clear
6:53 PM 88.0 °F 96.5 °F 73.9 °F 63% 29.88 in 10.0 mi South 10.4 mph - N/A   Clear
7:53 PM 84.9 °F 92.1 °F 73.9 °F 69% 29.88 in 10.0 mi South 9.2 mph - N/A   Clear
8:53 PM 82.9 °F 90.2 °F 75.0 °F 77% 29.90 in 10.0 mi South 6.9 mph - N/A   Clear
9:53 PM 82.0 °F 88.6 °F 75.0 °F 79% 29.91 in 10.0 mi South 6.9 mph - N/A   Clear
10:53 PM 81.0 °F 86.2 °F 73.9 °F 79% 29.93 in 10.0 mi SSW 8.1 mph - N/A   Clear
11:53 PM 79.0 °F - 73.9 °F 84% 29.94 in 10.0 mi South 4.6 mph - N/A   Clear